Regional Weather Roundup
Issued by NWS Albany, NY

Current Version | Previous Version | Text Only | Print | Product List | Glossary On
Versions: 1 2 3 4 5 6 7 8 9 10 11 12 13 14 15 16 17 18 19 20 21 22 23 24 25 26 27 28 29 30 31 32 33 34 35 36 37 38 39 40 41 42 43 44 45 46 47 48 49 50
000
ASUS41 KALY 170810
RWRALY

NEW YORK STATE HOURLY WEATHER ROUNDUP
NATIONAL WEATHER SERVICE ALBANY NY
300 AM EST TUE JAN 17 2017

NOTE: "FAIR" INDICATES FEW OR NO CLOUDS BELOW 12,000 FEET WITH NO
SIGNIFICANT WEATHER AND/OR NO OBSTRUCTIONS TO VISIBILITY.

NYZ032-033-038>043-046>054-057>066-NYZ062>081-082-084-170900-
EAST


CITY           SKY/WX    TMP DP  RH WIND       PRES   REMARKS
ALBANY         PTCLDY    22  17  81 CALM      30.24F
GLENS FALLS    CLOUDY    17  12  80 CALM      30.24R
POUGHKEEPSIE   CLOUDY    36  26  67 CALM      30.23F
NEWBURGH       CLOUDY    36  28  75 W6        30.23F WCI  31
MONTGOMERY     CLOUDY    36  27  69 S6        30.21F WCI  31
WHITE PLAINS   CLOUDY    37  24  59 W5        30.21F WCI  33
ISLIP          CLOUDY    39  29  67 W7        30.23F WCI  34
NEW YORK CITY  CLOUDY    42  27  55 SW7       30.25F
CENTRAL PARK   CLOUDY    40  26  57 VRB5      30.28S
$$

NYZ005>009-017-018-044>046-055-056-170900-
CENTRAL


CITY           SKY/WX    TMP DP  RH WIND       PRES   REMARKS
FULTON         CLOUDY    26  20  77 E3        30.21F
SYRACUSE       CLOUDY    26  22  84 E3        30.21F
ROME           CLOUDY    19  17  92 CALM      30.24F
ELMIRA         MOCLDY    32  27  81 CALM      30.19F
BINGHAMTON     CLOUDY    31  24  75 S3        30.16F
MONTICELLO     CLOUDY    30  25  80 CALM      30.20F
$$

NYZ026>034-041>043-087-170900-
NORTH


CITY           SKY/WX    TMP DP  RH WIND       PRES   REMARKS
WATERTOWN      PTCLDY    21  20  96 E6        30.23S WCI  13
FORT DRUM      NOT AVBL
OGDENSBURG     FAIR      21  20  96 CALM      30.23S FOG
MASSENA        CLEAR     22  19  89 SW3       30.25S
SARANAC LAKE   CLEAR     10   6  84 CALM      30.17R
PLATTSBURGH    CLEAR     25  16  68 CALM      30.23R
$$

NYZ001>004-010>016-019>021-085-170900-
WEST


CITY           SKY/WX    TMP DP  RH WIND       PRES   REMARKS
NIAGARA FALLS  LGT RAIN  34  27  75 SE5       30.16S WCI  30
BUFFALO        LGT RAIN  33  29  85 E5        30.16S WCI  29
DUNKIRK        CLOUDY    34  32  92 NE5       30.13F WCI  30
JAMESTOWN      CLOUDY    34  28  80 E5        30.09F WCI  30
WELLSVILLE     LGT RAIN  35  28  75 SE7       30.13F WCI  29
ROCHESTER      CLOUDY    34  26  72 CALM      30.20R
PENN YAN       CLOUDY    36  26  67 SW5       30.19R WCI  32
$$

             KEY
       WCI = WIND CHILL INDEX
       VSB = VISIBILITY
       HX  = HEAT INDEX
$$



USA.gov is the U.S. government's official web portal to all federal, state and local government web resources and services.